Location: Casa Rossa
(45.2389°N, 12.2056°E)
Time: 03:50:32
(UTC+00:00)

Cosmos 614 Rocket - Pass Details

Date: 14 July 2020
Orbit: 732 x 764 km, 74.1° (Epoch: 11 August)

Event Time Altitude Azimuth Distance (km) Brightness Sun altitude
Exits shadow 00:43:21 44° 199° (SSW) 1,009 4.1 -20.3°
Maximum altitude 00:44:59 89° 118° (ESE) 746 3.8 -20.2°
Drops below altitude 10° 00:50:08 10° 21° (NNE) 2,268 7.7 -19.9°
Sets 00:52:30 0° 22° (NNE) 3,201 8.9 -19.7°
